Home   Weather   White Lake   Past weeks
Flag for USA

Past Weather in White Lake, Michigan, USA — Yesterday and Last 2 Weeks

Now
59 °F

Mostly cloudy.


Feels Like: 58 °F
Forecast: 63 / 37 °F
Wind: 7 mph from Southeast

Location: Oakland County International Airport

Current Time: Oct 15, 2019 at 3:44:34 pm

Latest Report: Oct 15, 2019 at 2:53 pm


Visibility: 10 mi

Pressure: 29.90 "Hg

Humidity: 49%

Dew Point: 40 °F

Location of White LakeLocation

Past Weather in White Lake — Graph

°F

White Lake Temperature Yesterday

Maximum temperature yesterday: 49 °F (at 2:53 pm)
Minimum temperature yesterday: 38 °F (at 11:53 pm)
Average temperature yesterday: 45 °F

High & Low Weather Summary for the Past Weeks

 TemperatureHumidityPressure
High80 °F (Oct 1, 11:53 am)100% (Oct 1, 3:53 am)30.40 "Hg (Oct 1, 3:53 am)
Low32 °F (Oct 15, 5:53 am)32% (Oct 13, 3:53 pm)29.74 "Hg (Oct 13, 3:53 pm)
Average55 °F76%30.06 "Hg
* Reported Sep 30 1:53 pm — Oct 15 1:53 pm, White Lake. Weather by CustomWeather, © 2019

Note: Actual official high and low records may vary slightly from our data, if they occured in-between our weather recording intervals... More about our weather records

Advertising

White Lake Weather History for the Previous 24 Hours

Scroll right to see more
 ConditionsComfort  
Time TempWeatherWind HumidityBarometerVisibility
1:53 pm
Tue, Oct 15
59 °FBroken clouds.7 mph48%29.94 "Hg10 mi
12:53 pm56 °FScattered clouds.16 mph53%29.96 "Hg10 mi
11:53 am54 °FPartly sunny.13 mph53%30.00 "Hg10 mi
10:53 am49 °FScattered clouds.10 mph64%30.03 "Hg10 mi
9:53 am45 °FPartly sunny.7 mph74%30.06 "Hg10 mi
8:53 am40 °FBroken clouds.5 mph86%30.08 "Hg10 mi
7:53 am34 °FPartly sunny.No wind92%30.10 "Hg10 mi
6:53 am35 °FPassing clouds.No wind88%30.11 "Hg8 mi
5:53 am32 °FPassing clouds.No wind92%30.11 "Hg8 mi
5:30 am33 °FPassing clouds.No wind92%30.09 "Hg10 mi
4:53 am33 °FClear.No wind92%30.11 "Hg9 mi
4:03 am34 °FFog.No wind92%30.10 "Hg1 mi
2:53 am34 °FClear.No wind92%30.11 "Hg10 mi
1:53 am36 °FClear.No wind85%30.11 "Hg10 mi
12:53 am35 °FClear.No wind88%30.11 "Hg10 mi
11:53 pm
Mon, Oct 14
38 °FPassing clouds.No wind86%30.11 "Hg10 mi
10:53 pm39 °FPassing clouds.No wind86%30.11 "Hg10 mi
9:53 pm42 °FPassing clouds.No wind76%30.10 "Hg10 mi
8:53 pm46 °FPassing clouds.No wind66%30.09 "Hg10 mi
7:53 pm47 °FPassing clouds.3 mph61%30.07 "Hg10 mi
6:53 pm48 °FPassing clouds.7 mph54%30.06 "Hg10 mi
5:53 pm48 °FPartly sunny.7 mph56%30.06 "Hg10 mi
4:53 pm48 °FOvercast.7 mph56%30.05 "Hg10 mi
3:53 pm49 °FOvercast.13 mph55%30.04 "Hg10 mi
Weather by CustomWeather, © 2019

See weather overview